,,PA_Meas_PMT16A,,PR_Meas_QMR101_102,,RH_Meas_QMH101,,SR_Meas_QMS101,,TA_Meas_QMH101,,GenWind,,GenWind,
time,status,PA,status,PR,status,RH,status,SR,status,TA,status,DirAvg,status,SpdAvg,
2016-04-28, 07:09:04,VALID,917.817,VALID,0,VALID,104,VALID,113.995,VALID,20.2879,VALID,80,VALID,0,
2016-04-28, 07:10:04,VALID,917.859,VALID,0,VALID,104,VALID,133.442,VALID,20.3074,VALID,80,VALID,0,
2016-04-28, 07:11:04,VALID,917.862,VALID,0,VALID,104,VALID,143.434,VALID,20.3854,VALID,80,VALID,0,
2016-04-28, 07:12:04,VALID,917.882,VALID,0,VALID,104,VALID,144.938,VALID,20.3869,VALID,80,VALID,0,
2016-04-28, 07:13:04,VALID,917.93,VALID,0,VALID,104,VALID,146.55,VALID,20.3659,VALID,81,VALID,0,
2016-04-28, 07:14:04,VALID,917.927,VALID,0,VALID,104,VALID,150.632,VALID,20.4454,VALID,199,VALID,0,
2016-04-28, 07:15:04,VALID,917.928,VALID,0,VALID,104,VALID,125.921,VALID,20.5414,VALID,200,VALID,0.966016,
2016-04-28, 07:16:04,VALID,917.953,VALID,0,VALID,104,VALID,138.707,VALID,20.582,VALID,209,VALID,0.658984,
2016-04-28, 07:17:04,VALID,917.966,VALID,0,VALID,104,VALID,161.591,VALID,20.5804,VALID,173,VALID,1.22773,
2016-04-28, 07:18:04,VALID,917.987,VALID,0,VALID,104,VALID,146.872,VALID,20.5625,VALID,191,VALID,0.0539063,
2016-04-28, 07:19:04,VALID,917.988,VALID,0,VALID,104,VALID,116.789,VALID,20.5804,VALID,182,VALID,0.867969,
2016-04-28, 07:20:04,VALID,918.013,VALID,0,VALID,104,VALID,143.004,VALID,20.5804,VALID,211,VALID,0,
2016-04-28, 07:21:04,VALID,917.971,VALID,0,VALID,104,VALID,149.988,VALID,20.6194,VALID,179,VALID,0,
2016-04-28, 07:22:04,VALID,917.979,VALID,0,VALID,104,VALID,172.121,VALID,20.6585,VALID,180,VALID,0,
2016-04-28, 07:23:04,VALID,917.996,VALID,0,VALID,104,VALID,192.212,VALID,20.7365,VALID,220,VALID,0,
2016-04-28, 07:24:04,VALID,917.975,VALID,0,VALID,104,VALID,161.806,VALID,20.7576,VALID,220,VALID,0,
2016-04-28, 07:25:04,VALID,917.954,VALID,0,VALID,104,VALID,163.955,VALID,20.7755,VALID,220,VALID,0,
2016-04-28, 07:26:04,VALID,917.954,VALID,0,VALID,104,VALID,136.665,VALID,20.7365,VALID,225,VALID,0,
2016-04-28, 07:27:04,VALID,917.985,VALID,0,VALID,104,VALID,156.542,VALID,20.8535,VALID,224,VALID,0,
2016-04-28, 07:28:04,VALID,917.995,VALID,0,VALID,104,VALID,163.203,VALID,20.8535,VALID,224,VALID,0,
2016-04-28, 07:29:04,VALID,917.988,VALID,0,VALID,104,VALID,168.145,VALID,20.873,VALID,203,VALID,0,
2016-04-28, 07:30:04,VALID,918.021,VALID,0,VALID,104,VALID,192.212,VALID,20.9511,VALID,179,VALID,0,
2016-04-28, 07:31:04,VALID,918.043,VALID,0,VALID,104,VALID,210.37,VALID,21.008,VALID,148,VALID,0,
2016-04-28, 07:32:04,VALID,918.042,VALID,0,VALID,104,VALID,184.047,VALID,21.2047,VALID,142,VALID,0,
2016-04-28, 07:33:04,VALID,918.091,VALID,0,VALID,104,VALID,198.551,VALID,21.2827,VALID,98,VALID,0,
2016-04-28, 07:34:04,VALID,918.045,VALID,0,VALID,104,VALID,223.155,VALID,21.3217,VALID,91,VALID,0,
2016-04-28, 07:35:04,VALID,918.108,VALID,0,VALID,104,VALID,227.023,VALID,21.4193,VALID,92,VALID,0,
2016-04-28, 07:36:04,VALID,918.107,VALID,0,VALID,104,VALID,190.601,VALID,21.5932,VALID,91,VALID,0,
2016-04-28, 07:37:04,VALID,918.161,VALID,0,VALID,104,VALID,197.584,VALID,21.6128,VALID,77,VALID,0,
2016-04-28, 07:38:04,VALID,918.085,VALID,0,VALID,104,VALID,282.14,VALID,21.5737,VALID,34,VALID,0,
2016-04-28, 07:39:04,VALID,918.125,VALID,0,VALID,104,VALID,267.958,VALID,21.6339,VALID,57,VALID,0.617578,
2016-04-28, 07:40:04,VALID,918.127,VALID,0,VALID,104,VALID,239.809,VALID,21.577,VALID,62,VALID,1.21289,
2016-04-28, 07:41:04,VALID,918.108,VALID,0,VALID,104,VALID,232.932,VALID,21.5754,VALID,60,VALID,1.28984,
2016-04-28, 07:42:04,VALID,918.106,VALID,0,VALID,104,VALID,248.511,VALID,21.6128,VALID,45,VALID,0.519922,
2016-04-28, 07:43:04,VALID,918.084,VALID,0,VALID,104,VALID,262.049,VALID,21.751,VALID,45,VALID,0.935547,
2016-04-28, 07:44:04,VALID,918.085,VALID,0,VALID,104,VALID,253.776,VALID,21.8095,VALID,52,VALID,0.0128906,
2016-04-28, 07:45:04,VALID,918.071,VALID,0,VALID,104,VALID,203.064,VALID,21.7298,VALID,54,VALID,0,
2016-04-28, 07:46:04,VALID,918.078,VALID,0,VALID,104,VALID,191.782,VALID,21.751,VALID,46,VALID,0,
2016-04-28, 07:47:04,VALID,918.088,VALID,0,VALID,104,VALID,182.113,VALID,21.7103,VALID,52,VALID,0,
2016-04-28, 07:48:04,VALID,918.076,VALID,0,VALID,104,VALID,237.123,VALID,21.6128,VALID,55,VALID,0,
2016-04-28, 07:49:04,VALID,918.057,VALID,0,VALID,104,VALID,263.553,VALID,21.5152,VALID,65,VALID,0,
2016-04-28, 07:50:04,VALID,918.085,VALID,0,VALID,104,VALID,231.965,VALID,21.5542,VALID,44,VALID,0,
2016-04-28, 07:51:04,VALID,918.059,VALID,0,VALID,104,VALID,279.669,VALID,21.5737,VALID,57,VALID,0,
2016-04-28, 07:52:04,VALID,918.093,VALID,0,VALID,104,VALID,294.174,VALID,21.6128,VALID,49,VALID,0,
2016-04-28, 07:53:04,VALID,918.126,VALID,0,VALID,104,VALID,248.404,VALID,21.5542,VALID,53,VALID,0,
2016-04-28, 07:54:04,VALID,918.106,VALID,0,VALID,104,VALID,218.32,VALID,21.5949,VALID,61,VALID,0,
2016-04-28, 07:55:04,VALID,918.086,VALID,0,VALID,104,VALID,213.808,VALID,21.5737,VALID,37,VALID,0,
2016-04-28, 07:56:04,VALID,918.129,VALID,0,INVALID,109.076,VALID,314.588,VALID,21.5932,VALID,41,VALID,0,
2016-04-28, 07:57:04,VALID,918.112,VALID,0,INVALID,109.083,VALID,305.563,VALID,21.6111,VALID,46,VALID,0,
2016-04-28, 07:58:04,VALID,918.11,VALID,0,INVALID,109.198,VALID,306.315,VALID,21.6891,VALID,76,VALID,0,
2016-04-28, 07:59:04,VALID,918.12,VALID,0,INVALID,109.076,VALID,311.687,VALID,21.8842,VALID,38,VALID,0,
2016-04-28, 08:00:04,VALID,918.078,VALID,0,INVALID,109.305,VALID,315.125,VALID,22.0208,VALID,65,VALID,0,
2016-04-28, 08:01:04,VALID,918.108,VALID,0,INVALID,109.686,VALID,316.199,VALID,22.1379,VALID,66,VALID,0,
2016-04-28, 08:02:04,VALID,918.1,VALID,0,INVALID,110.12,VALID,318.778,VALID,22.1557,VALID,74,VALID,0,
2016-04-28, 08:03:04,VALID,918.085,VALID,0,INVALID,110.486,VALID,323.076,VALID,22.255,VALID,71,VALID,0,
2016-04-28, 08:04:04,VALID,918.083,VALID,0,INVALID,110.57,VALID,328.125,VALID,22.4501,VALID,7,VALID,0,
2016-04-28, 08:05:04,VALID,918.1,VALID,0,INVALID,110.852,VALID,333.282,VALID,22.647,VALID,15,VALID,0.610937,
2016-04-28, 08:06:04,VALID,918.102,VALID,0,INVALID,111.271,VALID,330.059,VALID,22.725,VALID,50,VALID,0,
2016-04-28, 08:07:04,VALID,918.149,VALID,0,INVALID,111.744,VALID,332.853,VALID,22.8031,VALID,51,VALID,0,
2016-04-28, 08:08:04,VALID,918.109,VALID,0,INVALID,111.63,VALID,335.109,VALID,22.977,VALID,18,VALID,0,
2016-04-28, 08:09:04,VALID,918.165,VALID,0,INVALID,111.294,VALID,338.655,VALID,23.2307,VALID,7,VALID,0,
2016-04-28, 08:10:04,VALID,918.185,VALID,0,INVALID,109.388,VALID,340.803,VALID,23.252,VALID,10,VALID,0,
2016-04-28, 08:11:04,VALID,918.198,VALID,0,VALID,104,VALID,337.688,VALID,23.2698,VALID,3,VALID,0,
2016-04-28, 08:12:04,VALID,918.202,VALID,0,VALID,104,VALID,336.506,VALID,23.4667,VALID,70,VALID,0,
2016-04-28, 08:13:04,VALID,918.206,VALID,0,VALID,103.831,VALID,335.539,VALID,23.6016,VALID,61,VALID,0,
2016-04-28, 08:14:04,VALID,918.229,VALID,0,VALID,104,VALID,354.771,VALID,23.6211,VALID,74,VALID,0,
2016-04-28, 08:15:04,VALID,918.233,VALID,0,VALID,102.1,VALID,365.837,VALID,23.5626,VALID,65,VALID,0,
2016-04-28, 08:16:04,VALID,918.252,VALID,0,VALID,101.376,VALID,356.597,VALID,23.504,VALID,62,VALID,0,
2016-04-28, 08:17:04,VALID,918.233,VALID,0,VALID,101.811,VALID,342.2,VALID,23.504,VALID,73,VALID,0,
2016-04-28, 08:18:04,VALID,918.234,VALID,0,VALID,102.794,VALID,351.118,VALID,23.5626,VALID,65,VALID,0,
2016-04-28, 08:19:04,VALID,918.221,VALID,0,VALID,97.0918,VALID,366.374,VALID,23.5608,VALID,72,VALID,0,
2016-04-28, 08:20:04,VALID,918.227,VALID,0,VALID,84.0787,VALID,367.664,VALID,23.6797,VALID,45,VALID,0,
2016-04-28, 08:21:04,VALID,918.246,VALID,0,VALID,84.3836,VALID,383.243,VALID,23.756,VALID,49,VALID,0,
2016-04-28, 08:22:04,VALID,918.233,VALID,0,VALID,83.5526,VALID,383.135,VALID,23.8163,VALID,54,VALID,0,
2016-04-28, 08:23:04,VALID,918.247,VALID,0,VALID,83.6289,VALID,383.672,VALID,23.9335,VALID,54,VALID,0,
2016-04-28, 08:24:04,VALID,918.253,VALID,0,VALID,82.1499,VALID,381.309,VALID,24.1854,VALID,54,VALID,0,
2016-04-28, 08:25:04,VALID,918.261,VALID,0,VALID,79.6495,VALID,390.549,VALID,24.4978,VALID,54,VALID,0,
2016-04-28, 08:26:04,VALID,918.297,VALID,0,VALID,80.0764,VALID,384.532,VALID,24.6949,VALID,326,VALID,0,
2016-04-28, 08:27:04,VALID,918.307,VALID,0,VALID,81.3647,VALID,397.425,VALID,24.6168,VALID,271,VALID,0,
2016-04-28, 08:28:04,VALID,918.263,VALID,0,VALID,82.9885,VALID,400.326,VALID,24.4801,VALID,271,VALID,0,
2016-04-28, 08:29:04,VALID,918.298,VALID,0,VALID,84.5208,VALID,397.64,VALID,24.4411,VALID,271,VALID,0,
2016-04-28, 08:30:04,VALID,918.276,VALID,0,VALID,83.9796,VALID,409.458,VALID,24.4801,VALID,272,VALID,0,
2016-04-28, 08:31:04,VALID,918.312,VALID,0,VALID,81.5553,VALID,419.88,VALID,24.4216,VALID,271,VALID,0,
2016-04-28, 08:32:04,VALID,918.294,VALID,0,VALID,80.3051,VALID,224.874,VALID,24.4002,VALID,271,VALID,0,
2016-04-28, 08:33:04,VALID,918.31,VALID,0,VALID,80.5185,VALID,433.525,VALID,24.4606,VALID,297,VALID,0,
2016-04-28, 08:34:04,VALID,918.324,VALID,0,VALID,78.9024,VALID,427.401,VALID,24.5173,VALID,310,VALID,0,
2016-04-28, 08:35:04,VALID,918.29,VALID,0,VALID,79.1844,VALID,423.211,VALID,24.5759,VALID,310,VALID,0,
2016-04-28, 08:36:04,VALID,918.307,VALID,0,VALID,79.4589,VALID,425.682,VALID,24.6735,VALID,312,VALID,0,
2016-04-28, 08:37:04,VALID,918.319,VALID,0,VALID,78.5212,VALID,423.855,VALID,24.9097,VALID,13,VALID,0,
2016-04-28, 08:38:04,VALID,918.296,VALID,0,VALID,76.8059,VALID,423.318,VALID,25.0055,VALID,10,VALID,0,
2016-04-28, 08:39:04,VALID,918.298,VALID,0,VALID,78.5059,VALID,425.037,VALID,25.1031,VALID,8,VALID,0,
2016-04-28, 08:40:04,VALID,918.346,VALID,0,VALID,78.018,VALID,424.285,VALID,25.1617,VALID,7,VALID,0,
2016-04-28, 08:41:04,VALID,918.342,VALID,0,VALID,77.2557,VALID,421.277,VALID,25.2007,VALID,8,VALID,0,
2016-04-28, 08:42:04,VALID,918.333,VALID,0,VALID,76.4171,VALID,422.459,VALID,25.2788,VALID,345,VALID,0,
2016-04-28, 08:43:04,VALID,918.349,VALID,0,VALID,76.2494,VALID,418.268,VALID,25.316,VALID,3,VALID,0,
2016-04-28, 08:44:04,VALID,918.316,VALID,0,VALID,75.3956,VALID,423.318,VALID,25.4741,VALID,12,VALID,0,
2016-04-28, 08:45:04,VALID,918.369,VALID,0,VALID,75.7615,VALID,450.823,VALID,25.5523,VALID,6,VALID,0,
2016-04-28, 08:46:04,VALID,918.349,VALID,0,VALID,74.9534,VALID,457.162,VALID,25.4351,VALID,16,VALID,0,
2016-04-28, 08:47:04,VALID,918.334,VALID,0,VALID,77.7588,VALID,455.121,VALID,25.1812,VALID,338,VALID,0,
2016-04-28, 08:48:04,VALID,918.348,VALID,0,VALID,78.8109,VALID,451.79,VALID,25.1226,VALID,41,VALID,0,
2016-04-28, 08:49:04,VALID,918.327,VALID,0,VALID,78.5745,VALID,449.426,VALID,25.1812,VALID,5,VALID,0,
2016-04-28, 08:50:04,VALID,918.297,VALID,0,VALID,77.7207,VALID,459.633,VALID,25.2203,VALID,356,VALID,0,
2016-04-28, 08:51:04,VALID,918.321,VALID,0,VALID,77.6674,VALID,479.188,VALID,25.2007,VALID,261,VALID,0,
2016-04-28, 08:52:04,VALID,918.333,VALID,0,VALID,79.3979,VALID,467.906,VALID,24.9859,VALID,279,VALID,0,
2016-04-28, 08:53:04,VALID,918.349,VALID,0,VALID,79.4512,VALID,490.254,VALID,24.9059,VALID,268,VALID,0,
2016-04-28, 08:54:04,VALID,918.357,VALID,0,VALID,78.0028,VALID,495.304,VALID,24.9469,VALID,252,VALID,0,
2016-04-28, 08:55:04,VALID,918.353,VALID,0,VALID,77.3014,VALID,522.916,VALID,25.0836,VALID,272,VALID,0,
2016-04-28, 08:56:04,VALID,918.374,VALID,0,VALID,77.7207,VALID,531.619,VALID,25.0445,VALID,318,VALID,0,
2016-04-28, 08:57:04,VALID,918.377,VALID,0,VALID,78.7956,VALID,534.09,VALID,24.8883,VALID,312,VALID,0,
2016-04-28, 08:58:04,VALID,918.396,VALID,0,VALID,82.7598,VALID,537.206,VALID,24.7711,VALID,321,VALID,0,
2016-04-28, 08:59:04,VALID,918.419,VALID,0,VALID,80.6862,VALID,534.52,VALID,24.8297,VALID,282,VALID,0,
2016-04-28, 09:00:04,VALID,918.433,VALID,0,VALID,80.0535,VALID,541.933,VALID,24.9255,VALID,246,VALID,0,
2016-04-28, 09:01:04,VALID,918.393,VALID,0,VALID,79.2759,VALID,542.148,VALID,24.9645,VALID,278,VALID,0,
2016-04-28, 09:02:04,VALID,918.417,VALID,0,VALID,77.5835,VALID,561.487,VALID,24.9859,VALID,254,VALID,0,
2016-04-28, 09:03:04,VALID,918.427,VALID,0,VALID,76.7754,VALID,580.719,VALID,25.0036,VALID,240,VALID,0,
2016-04-28, 09:04:04,VALID,918.472,VALID,0,VALID,78.2239,VALID,581.471,VALID,24.984,VALID,254,VALID,0,
2016-04-28, 09:05:04,VALID,918.459,VALID,0,VALID,77.9418,VALID,577.281,VALID,24.9645,VALID,252,VALID,0,
2016-04-28, 09:06:04,VALID,918.522,VALID,0,VALID,80.4652,VALID,581.471,VALID,24.984,VALID,257,VALID,0,
2016-04-28, 09:07:04,VALID,918.49,VALID,0,VALID,78.5136,VALID,590.497,VALID,25.0426,VALID,258,VALID,0,
2016-04-28, 09:08:04,VALID,918.509,VALID,0,VALID,78.8642,VALID,579.108,VALID,25.2183,VALID,252,VALID,0,
2016-04-28, 09:09:04,VALID,918.489,VALID,0,VALID,78.5974,VALID,606.613,VALID,25.1579,VALID,252,VALID,0,
2016-04-28, 09:10:04,VALID,918.483,VALID,0,VALID,78.8033,VALID,529.363,VALID,25.0993,VALID,252,VALID,0,
2016-04-28, 09:11:04,VALID,918.531,VALID,0,VALID,79.2378,VALID,330.274,VALID,25.1012,VALID,292,VALID,0,
2016-04-28, 09:12:04,VALID,918.539,VALID,0,VALID,77.4158,VALID,294.174,VALID,25.1188,VALID,316,VALID,0,
2016-04-28, 09:13:04,VALID,918.524,VALID,0,VALID,78.0638,VALID,578.893,VALID,25.1207,VALID,266,VALID,0,
2016-04-28, 09:14:04,VALID,918.544,VALID,0,VALID,77.9952,VALID,408.384,VALID,25.1579,VALID,251,VALID,0,
2016-04-28, 09:15:04,VALID,918.559,VALID,0,VALID,77.5606,VALID,605.323,VALID,25.275,VALID,261,VALID,0,
2016-04-28, 09:16:04,VALID,918.553,VALID,0,VALID,74.7095,VALID,372.391,VALID,25.3941,VALID,245,VALID,0,
2016-04-28, 09:17:04,VALID,918.577,VALID,0,VALID,77.6521,VALID,283.86,VALID,25.4136,VALID,250,VALID,0,
2016-04-28, 09:18:04,VALID,918.586,VALID,0,VALID,77.6369,VALID,384.532,VALID,25.4351,VALID,323,VALID,0,
2016-04-28, 09:19:04,VALID,918.58,VALID,0,VALID,76.6687,VALID,640.564,VALID,25.4527,VALID,331,VALID,0,
2016-04-28, 09:20:04,VALID,918.626,VALID,0,VALID,76.6839,VALID,514.965,VALID,25.5269,VALID,273,VALID,0,
2016-04-28, 09:21:04,VALID,918.615,VALID,0,VALID,76.5315,VALID,670.003,VALID,25.3746,VALID,237,VALID,0.264062,
2016-04-28, 09:22:04,VALID,918.64,VALID,0,VALID,78.0028,VALID,670.863,VALID,25.3726,VALID,235,VALID,0,
2016-04-28, 09:23:04,VALID,918.623,VALID,0,VALID,76.844,VALID,538.817,VALID,25.5093,VALID,270,VALID,0,
2016-04-28, 09:24:04,VALID,918.643,VALID,0,VALID,76.3256,VALID,682.144,VALID,25.5484,VALID,241,VALID,0.00351562,
2016-04-28, 09:25:04,VALID,918.634,VALID,0,VALID,77.4234,VALID,666.887,VALID,25.4507,VALID,263,VALID,0,
2016-04-28, 09:26:04,VALID,918.648,VALID,0,VALID,78.5669,VALID,657.54,VALID,25.5484,VALID,262,VALID,0,
2016-04-28, 09:27:04,VALID,918.607,VALID,0,VALID,76.196,VALID,640.134,VALID,25.7046,VALID,255,VALID,0,
2016-04-28, 09:28:04,VALID,918.645,VALID,0,VALID,75.6014,VALID,672.044,VALID,25.9389,VALID,269,VALID,0,
2016-04-28, 09:29:04,VALID,918.629,VALID,0,VALID,75.6624,VALID,671.507,VALID,25.9565,VALID,237,VALID,0,
2016-04-28, 09:30:04,VALID,918.592,VALID,0,VALID,75.022,VALID,622.944,VALID,26.0561,VALID,304,VALID,0,
2016-04-28, 09:31:04,VALID,918.608,VALID,0,VALID,77.149,VALID,349.721,VALID,26.1733,VALID,306,VALID,0,
2016-04-28, 09:32:04,VALID,918.629,VALID,0,VALID,74.3893,VALID,465.972,VALID,25.8608,VALID,283,VALID,0,
2016-04-28, 09:33:04,VALID,918.585,VALID,0,VALID,75.7539,VALID,271.074,VALID,25.646,VALID,285,VALID,0,
2016-04-28, 09:34:04,VALID,918.59,VALID,0,VALID,77.2786,VALID,242.387,VALID,25.4898,VALID,274,VALID,0,
2016-04-28, 09:35:04,VALID,918.568,VALID,0,VALID,76.7983,VALID,239.594,VALID,25.4293,VALID,314,VALID,0,
2016-04-28, 09:36:04,VALID,918.584,VALID,0,VALID,76.5315,VALID,248.404,VALID,25.5074,VALID,351,VALID,0,
2016-04-28, 09:37:04,VALID,918.583,VALID,0,VALID,73.848,VALID,423.64,VALID,25.5679,VALID,277,VALID,0,
2016-04-28, 09:38:04,VALID,918.58,VALID,0,VALID,74.2444,VALID,484.989,VALID,25.4312,VALID,280,VALID,0,
2016-04-28, 09:39:04,VALID,918.582,VALID,0,VALID,73.7794,VALID,714.269,VALID,25.3512,VALID,280,VALID,0,
2016-04-28, 09:40:04,VALID,918.613,VALID,0,VALID,74.0615,VALID,661.623,VALID,25.4683,VALID,290,VALID,0,
2016-04-28, 09:41:04,VALID,918.577,VALID,0,VALID,75.4718,VALID,701.913,VALID,25.6265,VALID,272,VALID,0,
2016-04-28, 09:42:04,VALID,918.6,VALID,0,VALID,75.8987,VALID,702.235,VALID,25.8589,VALID,264,VALID,0,
2016-04-28, 09:43:04,VALID,918.553,VALID,0,VALID,74.8619,VALID,298.901,VALID,26.0737,VALID,340,VALID,0,
2016-04-28, 09:44:04,VALID,918.562,VALID,0,VALID,74.4732,VALID,307.819,VALID,26.0972,VALID,290,VALID,0,
2016-04-28, 09:45:04,VALID,918.539,VALID,0,VALID,75.3346,VALID,402.904,VALID,25.9956,VALID,312,VALID,0,
2016-04-28, 09:46:04,VALID,918.531,VALID,0,VALID,76.4019,VALID,774.436,VALID,26.0932,VALID,360,VALID,0,
2016-04-28, 09:47:04,VALID,918.484,VALID,0,VALID,75.5328,VALID,774.114,VALID,26.2885,VALID,360,VALID,0.151562,
2016-04-28, 09:48:04,VALID,918.497,VALID,0,VALID,74.8086,VALID,741.559,VALID,26.4468,VALID,16,VALID,0.0113281,
2016-04-28, 09:49:04,VALID,918.445,VALID,0,VALID,72.6512,VALID,774.651,VALID,26.7007,VALID,19,VALID,0,
2016-04-28, 09:50:04,VALID,918.473,VALID,0,VALID,74.496,VALID,785.073,VALID,26.9351,VALID,313,VALID,0.003125,
2016-04-28, 09:51:04,VALID,918.46,VALID,0,VALID,72.2547,VALID,768.527,VALID,27.187,VALID,12,VALID,0,
2016-04-28, 09:52:04,VALID,918.436,VALID,0,VALID,70.6691,VALID,714.376,VALID,27.5366,VALID,342,VALID,0,
2016-04-28, 09:53:04,VALID,918.396,VALID,0,VALID,67.6273,VALID,347.572,VALID,27.7557,VALID,323,VALID,0,
2016-04-28, 09:54:04,VALID,918.405,VALID,0,VALID,65.813,VALID,288.372,VALID,27.4235,VALID,248,VALID,0,
2016-04-28, 09:55:04,VALID,918.402,VALID,0,VALID,69.3426,VALID,309.323,VALID,27.0503,VALID,247,VALID,0,
2016-04-28, 09:56:04,VALID,918.391,VALID,0,VALID,69.5865,VALID,346.283,VALID,26.9937,VALID,257,VALID,0,
2016-04-28, 09:57:04,VALID,918.375,VALID,0,VALID,70.0287,VALID,281.496,VALID,27.0348,VALID,252,VALID,0,
2016-04-28, 09:58:04,VALID,918.39,VALID,0,VALID,69.7619,VALID,284.182,VALID,26.7398,VALID,248,VALID,0,
2016-04-28, 09:59:04,VALID,918.38,VALID,0,VALID,72.9332,VALID,420.095,VALID,26.3686,VALID,250,VALID,0,
2016-04-28, 10:00:04,VALID,918.383,VALID,0,VALID,73.3982,VALID,356.382,VALID,26.0737,VALID,325,VALID,0,
2016-04-28, 10:01:04,VALID,918.363,VALID,0,VALID,73.0247,VALID,406.557,VALID,25.9194,VALID,250,VALID,0.789063,
2016-04-28, 10:02:04,VALID,918.375,VALID,0,VALID,74.9153,VALID,744.352,VALID,25.7046,VALID,217,VALID,0.0128906,
2016-04-28, 10:03:04,VALID,918.352,VALID,0,VALID,74.6256,VALID,605.323,VALID,25.7632,VALID,248,VALID,0.00195313,
2016-04-28, 10:04:04,VALID,918.35,VALID,0,VALID,75.5404,VALID,363.581,VALID,25.8022,VALID,228,VALID,0,
2016-04-28, 10:05:04,VALID,918.354,VALID,0,VALID,76.6458,VALID,814.726,VALID,25.9174,VALID,237,VALID,0,
2016-04-28, 10:06:04,VALID,918.373,VALID,0,VALID,76.0283,VALID,585.125,VALID,26.1538,VALID,257,VALID,0,
2016-04-28, 10:07:04,VALID,918.397,VALID,0,VALID,74.2292,VALID,453.187,VALID,26.2124,VALID,312,VALID,0,
2016-04-28, 10:08:04,VALID,918.363,VALID,0,VALID,72.1251,VALID,470.055,VALID,26.2905,VALID,303,VALID,0,
2016-04-28, 10:09:04,VALID,918.349,VALID,0,VALID,72.4529,VALID,449.426,VALID,26.2494,VALID,317,VALID,0,
2016-04-28, 10:10:04,VALID,918.375,VALID,0,VALID,72.1785,VALID,410.425,VALID,26.3686,VALID,317,VALID,0,
2016-04-28, 10:11:04,VALID,918.385,VALID,0,VALID,72.4225,VALID,395.383,VALID,26.4468,VALID,275,VALID,0,
2016-04-28, 10:12:04,VALID,918.355,VALID,0,VALID,70.9283,VALID,471.559,VALID,26.5444,VALID,271,VALID,0,
2016-04-28, 10:13:04,VALID,918.341,VALID,0,VALID,73.0171,VALID,538.71,VALID,26.5815,VALID,289,VALID,0,
2016-04-28, 10:14:04,VALID,918.351,VALID,0,VALID,71.805,VALID,448.674,VALID,26.6616,VALID,261,VALID,0,
2016-04-28, 10:15:04,VALID,918.361,VALID,0,VALID,72.2852,VALID,540.536,VALID,26.6616,VALID,23,VALID,0.0585938,
2016-04-28, 10:16:04,VALID,918.354,VALID,0,VALID,74.2749,VALID,548.272,VALID,26.7398,VALID,352,VALID,0.00195313,
2016-04-28, 10:17:04,VALID,918.363,VALID,0,VALID,72.6664,VALID,894.34,VALID,26.9156,VALID,33,VALID,0.3,
2016-04-28, 10:18:04,VALID,918.361,VALID,0,VALID,71.8736,VALID,579,VALID,27.0348,VALID,1,VALID,0,
2016-04-28, 10:19:04,VALID,918.374,VALID,0,VALID,71.2942,VALID,671.4,VALID,27.0719,VALID,354,VALID,0,
2016-04-28, 10:20:04,VALID,918.377,VALID,0,VALID,71.7363,VALID,332.745,VALID,27.0914,VALID,23,VALID,0.916406,
2016-04-28, 10:21:04,VALID,918.399,VALID,0,VALID,69.9143,VALID,786.684,VALID,27.0132,VALID,333,VALID,0.135547,
2016-04-28, 10:22:04,VALID,918.391,VALID,0,VALID,71.3094,VALID,851.471,VALID,26.9742,VALID,2,VALID,0,
2016-04-28, 10:23:04,VALID,918.363,VALID,0,VALID,71.0884,VALID,837.289,VALID,27.1109,VALID,23,VALID,0,
2016-04-28, 10:24:04,VALID,918.366,VALID,0,VALID,71.6906,VALID,832.454,VALID,27.3063,VALID,17,VALID,0,
2016-04-28, 10:25:04,VALID,918.342,VALID,0,VALID,70.0973,VALID,765.841,VALID,27.4235,VALID,282,VALID,0,
2016-04-28, 10:26:04,VALID,918.337,VALID,0,VALID,70.4785,VALID,827.942,VALID,27.5798,VALID,1,VALID,0.00585938,
2016-04-28, 10:27:04,VALID,918.362,VALID,0,VALID,68.9157,VALID,828.479,VALID,27.6775,INVALID,360,VALID,0,
2016-04-28, 10:28:04,VALID,918.357,VALID,0,VALID,66.9183,VALID,847.388,VALID,27.912,VALID,348,VALID,0,
2016-04-28, 10:29:04,VALID,918.376,VALID,0,VALID,65.9883,VALID,815.049,VALID,27.7557,VALID,254,VALID,0,
2016-04-28, 10:30:04,VALID,918.379,VALID,0,VALID,66.5067,VALID,857.273,VALID,27.5603,VALID,240,VALID,0,
2016-04-28, 10:31:04,VALID,918.366,VALID,0,VALID,67.5435,VALID,849.43,VALID,27.5017,VALID,225,VALID,0,
2016-04-28, 10:32:04,VALID,918.328,VALID,0,VALID,66.926,VALID,827.834,VALID,27.6754,VALID,223,VALID,0,
2016-04-28, 10:33:04,VALID,918.331,VALID,0,VALID,62.5425,VALID,813.33,VALID,27.8122,VALID,201,VALID,0,
2016-04-28, 10:34:04,VALID,918.295,VALID,0,VALID,63.9681,VALID,810.429,VALID,27.8729,VALID,227,VALID,0,
2016-04-28, 10:35:04,VALID,918.279,VALID,0,VALID,65.7596,VALID,692.995,VALID,27.8339,VALID,187,VALID,0,
2016-04-28, 10:36:04,VALID,918.292,VALID,0,VALID,68.1076,VALID,721.467,VALID,27.8925,VALID,207,VALID,0,
2016-04-28, 10:37:04,VALID,918.304,VALID,0,VALID,69.5408,VALID,843.306,VALID,28.1856,VALID,306,VALID,0,
2016-04-28, 10:38:04,VALID,918.287,VALID,0,VALID,66.6896,VALID,689.128,VALID,28.457,VALID,306,VALID,0,
2016-04-28, 10:39:04,VALID,918.326,VALID,0,VALID,65.5004,VALID,525.387,VALID,28.6916,VALID,306,VALID,0,
2016-04-28, 10:40:04,VALID,918.325,VALID,0,VALID,64.9286,VALID,245.181,VALID,28.672,VALID,7,VALID,0.166016,
2016-04-28, 10:41:04,VALID,918.325,VALID,0,VALID,61.7878,VALID,215.312,VALID,28.5569,VALID,244,VALID,1.75273,
2016-04-28, 10:42:04,VALID,918.308,VALID,0,VALID,65.691,VALID,217.461,VALID,28.1053,VALID,246,VALID,0,
2016-04-28, 10:43:04,VALID,918.299,VALID,0,VALID,66.8269,VALID,220.899,VALID,27.8904,VALID,303,VALID,0,
2016-04-28, 10:44:04,VALID,918.289,VALID,0,VALID,68.504,VALID,216.494,VALID,27.7536,VALID,291,VALID,0,
2016-04-28, 10:45:04,VALID,918.307,VALID,0,VALID,67.3529,VALID,218.106,VALID,27.5408,VALID,242,VALID,0,
2016-04-28, 10:46:04,VALID,918.252,VALID,0,VALID,69.0224,VALID,242.172,VALID,27.3238,VALID,304,VALID,0,
2016-04-28, 10:47:04,VALID,918.236,VALID,0,VALID,69.6094,VALID,244.858,VALID,27.2281,VALID,23,VALID,0,
2016-04-28, 10:48:04,VALID,918.217,VALID,0,VALID,69.3273,VALID,252.164,VALID,27.1675,VALID,25,VALID,0,
2016-04-28, 10:49:04,VALID,918.222,VALID,0,VALID,70.1049,VALID,273.653,VALID,27.1479,VALID,22,VALID,0,
2016-04-28, 10:50:04,VALID,918.216,VALID,0,VALID,71.561,VALID,299.009,VALID,27.1479,VALID,20,VALID,0,
2016-04-28, 10:51:04,VALID,918.215,VALID,0,VALID,70.3489,VALID,336.613,VALID,27.2261,VALID,10,VALID,0,
2016-04-28, 10:52:04,VALID,918.174,VALID,0,VALID,69.7619,VALID,309.108,VALID,27.0112,VALID,23,VALID,0.200391,
2016-04-28, 10:53:04,VALID,918.172,VALID,0,VALID,72.0565,VALID,299.009,VALID,26.7377,VALID,22,VALID,0.0617188,
2016-04-28, 10:54:04,VALID,918.171,VALID,0,VALID,73.0933,VALID,299.868,VALID,26.7007,VALID,12,VALID,0,
2016-04-28, 10:55:04,VALID,918.15,VALID,0,VALID,71.9955,VALID,289.124,VALID,26.7573,VALID,358,VALID,0,
2016-04-28, 10:56:04,VALID,918.147,VALID,0,VALID,72.4987,VALID,279.132,VALID,26.7573,VALID,33,VALID,0,